SCP
0 0 0 0 0 0 0 0 0 0 0 0 0 0 0 0 0 0 0 0 0 0 0 0 0 0 0 0 0 0 0 0 0 0 0 0 0 0
0 0 0 0 0 0 0 0 0 0 0 0 0 0 0 0 0 0 0 0 0 0 0 0 0 0 0 0 0 0 0 0 0 0 0 0 0 0
0 0 0 0 0 0 0 0 0 0 0 0 0 0 0 0 0 0 0 0 0 0 0 0 0 0 0 0 0 0 0 0 0 0 0 0 0 0
0 0 0 0 0 0 0 0 0 0 0 0 0 0 0 0 0 0 0 0 0 0 0 0 0 0 0 0 0 0 0 0 0 0 0 0 0 0
0 0 0 0 0 0 0 0 0 0 0 0 0 0 0 0 0 0 0 0 0 0 0 0 0 0 0 0 0 0 0 0 0 0 0 0 0 0
0 0 0 0 0 0 0 0 0 0 0 0 0 0 0 0 0 0 0 0 0 0 0 0 0 0 0 0 0 0 0 0 0 0 0 0 0 0
0 0 0 0 0 0 0 0 0 0 0 0 0 0 0 0 0 0 0 0 0 0 0 0 0 0 0 0 0 0 0 0 0 0 0 0 0 0
0 0 0 0 0 0 0 0 0 0 0 0 0 0 0 0 0 0 0 0 0 0 0 0 0 0 0 0 0 0 0 0 0 0 0 0 0 0
0 0 0 0 0 0 0 0 0 0 0 0 0 0 0 0 0 0 0 0 0 0 0 0 0 0 0 0 0 0 0 0 0 0 0 0 0 0
0 0 0 0 0 0 0 0 0 0 0 0 0 0 0 0 0 0 0 0 0 0 0 0 0 0 0 0 0 0 0 0 0 0 0 0 0 0
0 0 0 0 0 0 0 0 0 0 0 0 0 0 0 0 0 0 0 0 0 0 0 0 0 0 0 0 0 0 0 0 0 0 0 0 0 0
0 0 0 0 0 0 0 0 0 0 0 0 0 0 0 0 0 0 0 0 0 0 0 0 0 0 0 0 0 0 0 0 0 0 0 0 0 0
0 0 0 0 0 0 0 0 0 0 0 0 0 0 0 0 0 0 0 0 0 0 0 0 0 0 0 0 0 0 0 0 0 0 0 0 0 0
0 0 0 0 0 0 0 0 0 0 0 0 0 0 0 0 0 0 0 0 0 0 0 0 0 0 0 0 0 0 0 0 0 0 0 0 0 0
0 0 0 0 0 0 0 0 0 0 0 0 0 0 0 0 0 0 0 0 0 0 0 0 0 0 0 0 0 0 0 0 0 0 0 0 0 0
0 0 0 0 0 0 0 0 0 0 0 0 0 0 0 0 0 0 0 0 0 0 0 0 0 0 0 0 0 0 0 0 0 0 0 0 0 0
0 0 0 0 0 0 0 0 0 0 0 0 0 0 0 0 0 0 0 0 0 0 0 0 0 0 0 0 0 0 0 0 0 0 0 0 0 0
0 0 0 0 0 0 0 0 0 0 0 0 0 0 0 0 0 0 0 0 0 0 0 0 0 0 0 0 0 0 0 0 0 0 0 0 0 0
0 0 0 0 0 0 0 0 0 0 0 0 0 0 0 0 0 0 0 0 0 0 0 0 0 0 0 0 0 0 0 0 0 0 0 0 0 0
0 0 0 0 0 0 0 0 0 0 0 0 0 0 0 0 0 0 0 0 0 0 0 0 0 0 0 0 0 0 0 0 0 0 0 0 0 0
0 0 0 0 0 0 0 0 0 0 0 0 0 0 0 0 0 0 0 0 0 0 0 0 0 0 0 0 0 0 0 0 0 0 0 0 0 0
0 0 0 0 0 0 0 0 0 0 0 0 0 0 0 0 0 0 0 0 0 0 0 0 0 0 0 0 0 0 0 0 0 0 0 0 0 0
-0 -0 0 0 0 0 0 0 0 0 0 0 0 0 0 0 0 0 0 0 0 0 0 0 0 0 0 0 0 0 0 0 0 0 0 0 0 0
Wind_Speed
2 2 2 2 2 2 2 3 4 2 2 2 1 1 1 1 3 2 2 5 5 6 7 7 6 6 6 6 6 5 5 5 5 5 6 6 5 6
1 1 2 2 2 1 2 2 3 3 3 2 2 2 2 2 3 2 3 5 5 6 6 7 7 7 6 6 6 6 5 5 5 5 6 5 5 5
2 2 2 2 2 1 1 2 2 2 2 3 1 1 1 2 2 2 2 2 3 6 6 6 7 7 7 7 6 6 6 6 6 6 6 6 6 6
2 2 2 2 2 2 2 2 2 2 3 3 2 1 2 3 2 2 2 2 3 5 6 6 6 7 8 8 7 7 7 7 6 6 6 6 6 6
3 3 3 2 2 2 2 2 2 2 2 2 2 2 2 1 1 2 2 2 3 4 5 6 6 7 8 8 8 8 8 7 7 7 6 6 6 5
3 3 3 3 4 3 3 3 3 2 2 2 2 2 2 2 1 1 2 2 2 2 3 3 5 7 7 8 8 8 8 7 7 7 7 7 6 6
3 3 3 3 3 3 3 3 3 3 2 2 2 1 2 1 2 2 2 2 2 2 2 2 2 3 4 6 8 8 8 8 8 8 8 8 7 7
3 3 3 2 3 4 4 4 5 4 4 3 3 4 4 4 3 2 2 1 3 2 2 3 2 3 3 4 7 9 9 9 9 9 8 8 8 8
3 2 2 2 2 1 3 4 4 6 7 5 5 5 5 5 4 3 3 4 4 3 2 3 2 3 3 5 8 9 10 10 9 9 8 8 8 8
2 2 2 2 2 2 2 2 3 3 5 5 5 6 6 5 5 6 5 4 3 3 3 3 3 3 3 3 6 9 9 10 9 9 8 8 8 8
2 1 2 2 3 3 2 2 3 3 4 5 6 7 7 7 6 3 2 2 3 3 2 2 2 2 2 3 4 8 9 9 9 9 9 9 9 7
1 1 2 3 3 3 3 3 3 4 3 3 4 5 5 5 6 6 5 4 3 3 3 3 2 1 2 2 2 3 4 6 8 9 9 9 9 5
1 2 2 4 4 4 3 3 5 5 3 3 3 3 3 3 3 4 5 6 5 5 4 3 2 2 2 2 2 2 3 3 3 4 7 8 9 7
2 2 3 4 4 4 4 5 6 4 2 2 2 3 3 3 4 4 5 6 6 6 5 5 4 4 3 2 2 2 2 2 3 3 3 4 6 8
2 3 4 5 4 3 5 5 3 2 2 2 3 4 3 4 3 3 3 3 3 4 4 4 4 3 3 3 3 2 2 2 2 3 2 3 3 3
1 2 3 3 3 4 4 3 2 2 3 3 3 3 3 3 3 2 2 2 2 3 3 3 4 5 3 3 3 3 3 2 2 3 2 2 2 3
0 1 1 1 2 2 2 2 1 1 2 2 2 3 3 3 3 3 2 2 3 3 3 2 2 3 4 3 3 3 3 3 3 2 2 2 3 3
2 0 1 1 1 2 2 2 1 1 2 2 2 2 3 3 3 2 2 3 3 3 3 3 1 0 1 2 4 4 3 3 3 2 2 2 3 3
1 1 1 1 2 2 1 1 2 2 2 1 2 2 2 2 2 2 2 2 3 3 3 3 2 3 3 4 4 4 4 3 2 2 3 3 4 4
0 1 1 1 1 1 1 1 2 2 1 2 2 2 2 1 2 2 2 2 2 2 2 2 3 4 5 5 3 3 5 4 3 3 3 2 2 3
1 1 1 1 1 1 1 1 1 1 2 2 2 2 1 1 2 2 2 2 1 2 2 3 4 4 2 1 1 2 3 5 5 4 3 2 2 1
1 1 1 0 0 1 1 1 1 2 2 2 2 2 2 1 2 2 2 1 1 2 2 3 2 1 1 2 3 3 3 2 2 2 3 4 4 4
1 1 0 0 0 1 1 1 1 1 2 2 2 2 2 2 2 2 2 2 2 2 2 2 2 1 1 2 3 2 2 2 1 0 2 3 5 6
Wind_Direction
204 199 200 211 193 190 174 167 165 194 267 268 275 268 247 214 210 201 214 222 221 220 219 217 218 218 218 222 227 226 230 236 238 235 234 233 229 224
208 192 214 213 200 191 175 171 166 173 222 249 248 249 238 233 221 210 223 225 224 226 227 224 221 220 219 222 227 227 229 233 236 237 233 228 223 221
231 201 223 206 198 196 177 168 175 165 202 266 270 261 199 227 249 231 227 222 232 233 231 229 229 224 222 225 226 226 231 234 236 239 237 231 225 225
236 221 236 217 207 200 188 191 195 186 182 234 274 260 228 225 222 227 237 233 237 240 236 234 234 231 228 228 230 231 232 231 231 234 235 227 221 221
217 217 229 213 228 225 206 207 211 207 187 198 247 253 254 244 245 260 246 248 250 243 232 234 237 238 233 233 235 235 233 232 229 227 226 222 220 221
223 220 221 209 218 222 217 212 204 200 193 196 234 253 257 261 210 243 274 265 261 256 246 244 242 240 237 237 237 236 233 230 227 226 224 221 221 223
236 233 223 225 228 217 216 208 198 198 197 204 228 253 259 246 235 230 248 270 270 240 236 252 238 240 240 239 237 234 228 225 226 224 222 221 221 223
236 244 241 237 245 240 234 225 208 201 204 209 226 231 239 231 226 220 219 244 272 248 196 256 221 237 239 232 234 230 223 221 223 224 223 222 222 222
228 231 245 250 238 241 260 255 242 231 215 208 219 231 231 222 210 221 219 216 233 234 188 252 241 245 248 242 231 228 226 224 225 227 227 224 224 225
228 217 212 234 246 224 237 260 256 256 241 225 224 232 233 226 211 212 215 227 256 248 191 229 246 247 257 249 235 229 227 225 225 226 226 226 222 222
255 233 214 228 249 231 211 239 265 279 275 255 248 247 240 233 218 197 204 204 248 250 208 203 237 252 260 255 245 232 228 226 226 227 225 222 217 217
300 285 255 250 264 244 217 222 248 264 279 290 282 275 256 242 225 205 199 204 220 245 225 192 224 208 285 268 245 229 225 231 231 232 229 222 212 204
258 274 272 270 265 258 243 234 242 254 262 261 268 274 273 256 237 219 206 200 206 228 214 175 189 190 209 269 284 240 215 220 221 234 230 222 211 201
239 256 266 274 269 264 260 261 261 263 256 259 260 261 257 254 250 237 225 221 219 221 212 185 191 191 190 222 260 271 251 228 214 225 225 213 217 219
250 261 272 274 274 267 265 269 268 255 249 253 256 258 254 250 251 248 246 235 241 239 219 202 195 195 191 207 222 233 255 259 223 218 217 209 209 203
285 292 294 287 290 285 287 278 250 236 231 243 256 265 269 266 254 231 228 226 233 265 252 222 207 195 208 219 211 230 220 223 230 224 215 226 222 209
230 356 352 335 319 306 298 293 289 287 268 267 267 274 272 267 257 235 218 210 214 230 249 252 234 217 211 203 217 231 230 232 229 217 199 226 240 226
137 137 290 296 292 294 296 306 310 295 283 280 279 275 270 268 265 246 219 213 224 231 231 227 211 221 327 285 217 219 230 234 239 220 197 206 245 245
129 224 274 288 293 298 299 298 299 291 291 292 286 283 281 278 271 254 234 229 229 229 230 218 198 190 216 256 266 215 207 221 217 223 215 209 227 243
174 231 259 277 289 300 306 306 306 315 321 312 308 308 305 298 298 285 257 237 237 236 242 238 221 213 215 225 238 254 217 203 205 221 229 225 242 258
216 233 241 256 304 317 319 324 326 326 328 325 320 310 310 315 307 300 292 284 253 240 247 253 250 241 227 164 239 268 255 223 209 205 201 201 231 248
213 225 238 248 325 327 333 341 343 343 344 343 331 326 322 329 319 317 314 303 282 264 266 274 279 255 188 202 230 247 261 281 253 237 225 195 187 206
208 209 207 222 5 354 341 346 345 332 332 332 321 321 335 339 328 321 319 315 307 296 293 293 299 267 224 213 221 234 244 252 250 310 300 279 239 240